Lid_Strength_Index
5 9 10 9 11 14 16 14 11 11 11 10 10 10 9 8 9 12 5 5 4 2 -0 -0 -0 -1 -1 -1 -1 -1 -1 -1 -1 -1 -1 -1 -1 -1 -1 -1 -1 -1 -1 -1 -2 -2 -2 -2 -2
9 8 10 12 17 19 18 13 12 10 9 10 11 9 10 10 8 7 6 6 6 3 0 0 0 -1 -1 -1 -1 -1 -1 -1 -1 -1 -1 -1 -1 -1 -1 -1 -1 -1 -1 -1 -1 -2 -2 -1 -1
10 10 14 15 19 21 20 16 13 11 12 13 13 9 11 11 9 8 6 6 7 3 2 1 0 -1 -1 -1 -1 -1 -1 -1 -1 -1 -1 -1 -1 -1 -1 -1 -1 -1 -2 -1 -2 -1 -1 -1 -1
13 13 15 18 20 17 18 15 14 14 13 12 12 12 11 10 9 7 6 7 7 7 3 1 0 -1 -1 -1 -1 -1 -1 -1 -1 -1 -1 -1 -1 -1 -1 -1 -1 -1 -2 -2 -2 -2 -1 -1 -2
14 15 19 20 19 16 14 13 16 16 14 14 13 12 12 10 10 9 7 8 9 8 6 5 3 1 -0 -1 -1 -1 -1 -1 -1 -1 -1 -1 -1 -1 -1 -1 -1 -1 -1 -2 -2 -2 -2 -2 -1
17 17 21 23 21 17 16 16 16 16 15 13 13 11 12 11 11 11 9 9 8 8 6 6 5 3 2 1 -0 -1 -1 -1 -1 -1 -1 -1 -1 -1 -1 -1 -1 -1 -2 -2 -2 -2 -2 -1 -1
18 19 23 23 21 19 17 15 17 17 16 14 13 12 11 11 11 10 11 11 11 9 7 7 7 6 4 3 2 2 1 -1 -1 -1 -1 -1 -1 -1 -1 -1 -1 -1 -2 -2 -2 -1 -1 -1 -1
17 19 22 22 22 20 17 14 15 15 15 13 12 14 13 12 9 9 10 11 12 11 9 8 8 7 6 4 4 2 2 2 1 0 0 1 1 0 0 1 -0 -1 -1 -1 -1 -1 -1 -1 -1
15 20 22 20 20 18 15 15 14 13 15 13 12 13 11 10 9 10 10 11 12 9 10 8 8 8 6 5 4 3 2 1 2 2 2 2 -0 -0 0 1 0 -1 -1 -1 -1 -1 -1 -0 -0
16 19 19 17 17 17 15 15 15 15 15 15 14 11 10 10 11 11 11 11 12 11 9 9 9 8 7 5 6 5 2 1 1 0 0 0 -0 -0 -0 1 2 1 0 -1 -1 -1 -0 1 0
16 18 16 15 14 14 14 15 14 15 16 14 14 14 12 12 12 12 11 10 11 12 11 10 10 10 8 7 6 6 4 3 1 1 -0 0 -0 0 -0 0 0 -0 2 -0 -0 -0 0 1 1
18 15 14 13 12 13 14 13 14 14 15 13 13 13 13 14 13 13 13 11 10 10 11 10 10 10 8 7 7 6 5 4 3 1 1 0 0 0 0 0 1 0 0 0 0 1 1 1 1
16 15 13 12 12 13 12 14 14 15 14 14 13 13 14 13 13 13 12 11 10 10 10 10 9 9 8 7 7 6 6 5 4 2 1 1 1 0 0 0 0 1 1 1 1 1 1 1 1
14 14 14 13 13 13 14 14 14 14 14 14 14 15 14 13 13 13 13 12 11 9 9 9 9 8 8 7 7 7 5 5 4 3 2 0 1 0 0 1 1 1 1 1 1 1 1 1 1
13 15 14 14 14 14 13 16 15 14 12 13 13 12 12 13 12 14 13 12 10 9 8 8 8 7 6 6 6 6 6 4 5 3 2 1 0 1 1 1 1 1 1 2 2 2 2 2 2
16 16 20 16 14 13 14 18 14 13 13 14 14 13 12 11 12 13 12 11 9 8 8 8 8 7 6 6 6 5 5 5 5 4 3 1 0 1 0 1 1 1 1 2 2 2 2 2 2
18 21 20 19 15 15 14 16 13 12 13 15 14 13 13 12 11 12 12 11 9 8 7 9 9 7 7 6 5 5 5 5 5 4 3 2 1 -0 0 1 1 1 2 2 2 2 2 3 3
21 21 20 20 17 15 15 15 14 12 14 14 14 14 14 13 13 12 11 10 9 8 7 9 9 7 7 6 6 6 6 5 5 5 4 2 1 0 0 0 1 1 2 3 2 3 3 3 3
18 19 21 19 15 16 15 16 15 14 14 15 14 15 14 14 13 12 11 10 10 9 9 8 8 5 5 7 8 7 7 6 5 3 2 2 1 0 1 1 1 1 2 2 2 2 3 4 4
17 19 21 18 15 15 16 17 17 14 14 15 15 15 15 14 14 13 12 10 10 10 9 7 6 5 5 5 5 6 6 4 4 2 1 1 1 0 1 1 1 1 2 2 2 2 4 4 3
18 20 20 20 16 15 15 19 18 14 13 14 14 14 15 15 15 14 13 12 11 10 10 8 7 7 6 6 4 4 4 4 3 3 2 1 2 0 0 1 1 2 2 2 2 2 3 4 4
25 18 19 19 20 22 18 24 17 16 15 15 16 16 16 15 15 14 14 13 12 11 10 9 8 8 7 6 5 5 5 5 4 2 3 5 6 1 1 1 1 1 1 1 2 2 2 3 5
21 18 19 19 20 22 17 22 20 17 18 18 18 17 17 16 15 15 15 14 13 12 12 10 9 9 9 8 7 6 5 2 2 4 6 7 9 9 6 3 3 6 5 2 1 4 7 7 6
18 21 20 20 20 25 21 20 21 23 22 20 19 19 18 16 16 15 14 14 13 12 12 11 11 11 10 10 9 8 7 6 5 7 8 9 11 11 11 11 12 12 12 13 13 13 14 14 14
22 25 31 29 29 27 19 20 21 22 20 22 22 21 18 17 17 16 16 15 14 14 13 12 12 12 11 11 11 10 10 9 9 9 10 12 13 14 14 14 14 14 14 14 15 16 16 17 17
21 26 30 33 29 26 19 23 20 21 21 24 21 21 18 18 17 17 16 16 15 15 14 14 14 13 13 12 12 12 11 11 11 11 12 13 15 15 15 16 16 16 15 16 16 17 17 17 18
21 24 21 29 27 28 24 19 20 17 18 22 24 19 20 19 18 17 16 15 16 15 15 15 15 15 14 14 14 14 13 13 13 14 13 14 14 15 15 16 17 18 17 18 18 18 19 19 20
19 19 27 26 33 33 25 24 23 22 24 22 24 21 20 19 19 18 16 16 16 15 15 15 15 15 15 14 14 14 14 14 14 15 17 17 16 17 17 18 18 19 19 18 19 20 20 21 21
23 23 22 24 25 31 30 27 24 26 25 25 23 20 20 19 19 19 17 17 17 16 16 15 16 16 16 16 15 15 15 16 16 17 18 18 19 18 20 20 19 20 19 21 20 21 21 21 22
21 27 25 29 28 26 26 27 23 26 28 23 22 20 19 18 19 19 19 18 18 18 17 16 16 17 16 16 16 16 16 17 18 19 19 19 19 20 20 20 20 20 21 22 22 22 22 22 23